Weather History for Martha's Vineyard, MA

Change the Weather History Date:

Thursday, July 18, 2013

  Actual Average Record
Temperature  
Mean Temperature 82 °F -  
Max Temperature 91 °F 79 °F 91 °F (1953)
Min Temperature 73 °F 63 °F 51 °F (1962)
Cooling Degree Days 16    
Growing Degree Days 32 (Base 50)    
Moisture  
Dew Point 73 °F    
Average Humidity 82    
Maximum Humidity 96    
Minimum Humidity 57    
Precipitation  
Precipitation 0.00 in - - ()
Sea Level Pressure  
Sea Level Pressure 30.00 in    
Wind  
Wind Speed 7 mph (SSW)    
Max Wind Speed 9 mph    
Max Gust Speed -    
Visibility 7 miles    
Events Fog    
Averages and records for this station are not official NWS values.
T = Trace of Precipitation, MM = Missing Value Source: NWS Daily Summary

Daily Weather History Graph

Daily Weather History Graph

Search for Another Location

Airport:

Trip Planner

Search our weather history database for the weather conditions in past years. The results will help you decide how hot, cold, wet, or windy it might be!

Date:

Astronomy

Jul. 18, 2013 Rise Set
Actual Time 5:24 AM EDT 8:12 PM EDT
Civil Twilight 4:52 AM EDT 8:44 PM EDT
Nautical Twilight 4:11 AM EDT 9:25 PM EDT
Astronomical Twilight 3:24 AM EDT 10:12 PM EDT
Moon 4:05 PM EDT (7/18) 1:13 AM EDT (7/18)
Length of Visible Light 15h 52m
Length of Day
14h 47m
Waxing Gibbous, 77% of the Moon is Illuminated
Jul 18
Waxing Gibbous
Jul 22
Full
Jul 29
Last Quarter
Aug 6
New
Aug 14
First Quarter

Hourly Weather History & Observations

Time (EDT) Temp. Heat Index Dew Point Humidity Pressure Visibility Wind Dir Wind Speed Gust Speed Precip Events Conditions
12:53 AM 73.9 °F - 72.0 °F 93% 30.05 in 10.0 mi SW 6.9 mph - N/A   Clear
1:53 AM 75.0 °F - 72.0 °F 90% 30.04 in 9.0 mi WSW 9.2 mph - N/A   Clear
2:53 AM 75.9 °F - 73.0 °F 91% 30.02 in 9.0 mi SW 8.1 mph - N/A   Scattered Clouds
3:53 AM 75.9 °F - 72.0 °F 87% 30.00 in 10.0 mi SW 8.1 mph - N/A   Unknown
4:53 AM 75.0 °F - 71.1 °F 87% 29.99 in 10.0 mi SW 8.1 mph - N/A   Clear
5:53 AM 75.9 °F - 70.0 °F 82% 30.00 in 10.0 mi WSW 5.8 mph - N/A   Scattered Clouds
6:53 AM 78.1 °F - 71.1 °F 79% 30.00 in 10.0 mi WSW 6.9 mph - N/A   Clear
7:53 AM 80.1 °F 83.8 °F 72.0 °F 76% 30.01 in 10.0 mi WNW 6.9 mph - N/A   Clear
8:53 AM 82.0 °F 87.4 °F 73.0 °F 74% 30.01 in 10.0 mi WNW 5.8 mph - N/A   Clear
9:53 AM 84.9 °F 92.1 °F 73.9 °F 69% 30.00 in 10.0 mi Variable 6.9 mph - N/A   Clear
10:53 AM 89.1 °F 99.1 °F 75.0 °F 63% 30.01 in 10.0 mi NNE 6.9 mph - N/A   Clear
11:53 AM 90.0 °F 99.0 °F 73.9 °F 59% 30.01 in 10.0 mi North 6.9 mph - N/A   Clear
12:53 PM 88.0 °F 95.6 °F 73.0 °F 61% 30.01 in 10.0 mi East 9.2 mph - N/A   Scattered Clouds
1:53 PM 88.0 °F 93.8 °F 71.1 °F 57% 30.01 in 10.0 mi ENE 8.1 mph - N/A   Clear
2:53 PM 87.1 °F 95.4 °F 73.9 °F 65% 30.00 in 10.0 mi South 6.9 mph - N/A   Clear
3:53 PM 86.0 °F 93.8 °F 73.9 °F 67% 29.99 in 10.0 mi SSE 6.9 mph - N/A   Clear
4:53 PM 84.0 °F 90.2 °F 73.0 °F 69% 29.98 in 10.0 mi South 5.8 mph - N/A   Clear
5:53 PM 82.9 °F 88.8 °F 73.0 °F 72% 29.99 in 10.0 mi SE 5.8 mph - N/A   Clear
6:53 PM 82.0 °F 86.7 °F 72.0 °F 71% 29.99 in 10.0 mi South 6.9 mph - N/A   Clear
7:53 PM 77.0 °F - 72.0 °F 84% 29.99 in 8.0 mi SE 6.9 mph - N/A   Clear
8:53 PM 75.0 °F - 72.0 °F 90% 29.99 in 7.0 mi South 6.9 mph - N/A   Clear
9:22 PM 75.2 °F - 71.6 °F 89% 30.00 in 6.0 mi SSE 5.8 mph - N/A   Partly Cloudy
9:53 PM 73.9 °F - 72.0 °F 93% 30.00 in 5.0 mi South 4.6 mph - N/A   Mostly Cloudy
10:16 PM 75.2 °F - 73.4 °F 94% 30.00 in 2.0 mi South 4.6 mph - N/A   Overcast
10:22 PM 75.2 °F - 73.4 °F 94% 30.00 in 0.8 mi South 4.6 mph - N/A   Overcast
10:39 PM 75.2 °F - 73.4 °F 94% 30.00 in 0.5 mi South 3.5 mph - N/A Fog Fog
10:53 PM 75.0 °F - 73.9 °F 96% 30.00 in 0.5 mi South 4.6 mph - N/A Fog Fog
11:00 PM 75.2 °F - 73.4 °F 94% 30.00 in 0.2 mi South 5.8 mph - N/A Fog Fog
11:09 PM 75.2 °F - 73.4 °F 94% 30.00 in 0.5 mi South 6.9 mph - N/A Fog Fog
11:34 PM 75.2 °F - 73.4 °F 94% 29.99 in 0.8 mi SSW 5.8 mph - N/A   Overcast
11:50 PM 75.2 °F - 73.4 °F 94% 29.99 in 1.2 mi SSW 4.6 mph - N/A   Mostly Cloudy
11:53 PM 75.0 °F - 73.9 °F 96% 29.99 in 1.5 mi SW 5.8 mph - N/A   Mostly Cloudy